Flag for U.S.A. Weather past 2 weeks in Honolulu, Hawaii, U.S.A.

Now
73 °F

Passing clouds.


Feels Like: 76 °F
Forecast: 66 / 77 °F
Wind: 14 mph from Northeast

Location: Honolulu International Airport

Current Time: Jan 26, 2015 at 7:48:00 PM

Latest Report: Jan 26, 2015 at 6:53 PM


Visibility: 10 mi

Pressure: 29.94 "Hg

Humidity: 59%

Dew point: 58 °F

Location of HonoluluLocation

Historic Weather in Honolulu — Graph

°F

Honolulu temperature yesterday

Maximum temperature yesterday: 76 °F (at 10:53 AM)
Minimum temperature yesterday: 67 °F (at 2:53 AM)
Average temperature yesterday: 71 °F

Past Weeks' High & Low Weather Summary

 TemperatureHumidityPressure
High84 °F (Jan 18, 2:53 PM)100% (Jan 23, 4:26 PM)30.11 "Hg (Jan 23, 4:26 PM)
Low64 °F (Jan 13, 4:53 AM)40% (Jan 18, 2:53 PM)29.90 "Hg (Jan 26, 2:53 PM)
Average74 °F76%30.00 "Hg
* Reported Jan 11 5:53 PM — Jan 26 5:53 PM, Honolulu, Weather by CustomWeather, © 2014

Note: Actual official high and low records may vary slightly from our data, if they occured in-between our weather recording intervals... More about our weather records

Advertising

Honolulu weather history for previous 24 hours

 ConditionsComfort  
Time TempWeatherWind HumidityBarometerVisibility
5:53 PM
Jan 26
75 °FScattered clouds.14 mph58%29.92 "Hg10 mi
4:53 PM77 °FScattered clouds.16 mph52%29.90 "Hg10 mi
3:53 PM78 °FScattered clouds.20 mph50%29.90 "Hg10 mi
2:53 PM80 °FScattered clouds.20 mph47%29.90 "Hg10 mi
1:53 PM80 °FScattered clouds.17 mph45%29.92 "Hg10 mi
12:53 PM79 °FScattered clouds.14 mph48%29.94 "Hg10 mi
11:53 AM79 °FScattered clouds.15 mph50%29.96 "Hg10 mi
10:53 AM78 °FScattered clouds.17 mph54%29.97 "Hg10 mi
9:53 AM76 °FScattered clouds.15 mph60%29.97 "Hg10 mi
8:53 AM74 °FScattered clouds.13 mph64%29.96 "Hg10 mi
7:53 AM71 °FScattered clouds.9 mph71%29.95 "Hg10 mi
6:53 AM70 °FPassing clouds.10 mph73%29.93 "Hg10 mi
5:53 AM69 °FPassing clouds.9 mph76%29.91 "Hg10 mi
4:53 AM69 °FPassing clouds.12 mph79%29.91 "Hg10 mi
3:53 AM70 °FPassing clouds.15 mph76%29.92 "Hg10 mi
2:53 AM70 °FPassing clouds.7 mph76%29.93 "Hg10 mi
1:53 AM70 °FClear.6 mph73%29.96 "Hg10 mi
12:53 AM70 °FPassing clouds.7 mph73%29.98 "Hg10 mi
11:53 PM
Jan 25
70 °FPassing clouds.8 mph73%29.99 "Hg10 mi
10:53 PM70 °FPassing clouds.No wind73%30.01 "Hg10 mi
9:53 PM70 °FPassing clouds.13 mph73%30.02 "Hg10 mi
8:53 PM70 °FPassing clouds.9 mph73%30.01 "Hg10 mi
7:53 PM70 °FPartly cloudy.15 mph76%30.01 "Hg10 mi
Weather by CustomWeather, © 2014

See weather overviewHow to use our weather pages